#timestamp,LO_Frequency,Hit 
1506081615.2,286047002.6,N
1506081635.0,286047001.5,N
1506081635.9,286047001.5,N
1506081655.8,286047000.4,N
1506081675.6,286046999.0,N
1506081695.4,286046998.2,N
1506081715.3,286046997.3,N
1506081735.1,286046997.4,N
1506081755.8,286046995.8,N
1506081775.7,286046995.1,N
1506081795.5,286046994.5,N
1506081815.3,286046992.2,N
1506081835.2,286046992.7,N
1506081855.9,286046993.1,N
1506081875.7,286046993.0,N
1506081895.5,286046991.9,N
1506081915.4,286046990.4,N
1506081935.2,286046987.5,P
1506081955.1,286046991.7,N
1506081956.0,286046991.7,N
1506081975.8,286046993.6,N
1506081995.6,286046995.5,N
1506082015.5,286046998.3,N
1506082035.3,286046999.9,N
1506082055.1,286047000.1,N
1506082075.8,286047002.4,N
1506082095.7,286047002.7,N
1506082115.5,286046999.9,N
1506082135.3,286047002.2,N
1506082155.2,286047002.8,N
1506082175.9,286047001.7,N
1506082195.7,286047003.1,N
1506082215.6,286047003.1,N
1506082235.4,286047005.5,N
1506082255.2,286047007.4,N
1506082275.0,286047003.3,N
1506082276.0,286047003.3,N
1506082295.8,286047002.5,N
1506082315.6,286047001.8,N
1506082335.4,286047002.5,N
1506082355.3,286046997.2,N
1506082375.1,286046998.8,N
1506082395.8,286047001.2,N
1506082415.7,286046999.1,N
1506082435.5,286046998.2,N
1506082455.3,286046996.6,N
1506082475.2,286046997.1,N
1506082495.9,286046996.9,N
1506082515.7,286046999.8,N
1506082535.6,286047001.8,N
1506082555.4,286047001.8,N
1506082575.2,286047004.4,N
1506082595.0,286047000.3,N
1506082596.0,286047000.3,N
1506082615.8,286046999.9,N
1506082635.6,286047000.0,N
1506082655.4,286047000.6,N
1506082675.3,286047000.1,N
1506082695.1,286046998.6,N
1506082715.8,286047000.3,N
1506082735.7,286047002.0,N
1506082755.5,286047001.9,N
1506082775.3,286047002.0,N
1506082795.2,286047002.4,N
1506082815.9,286047001.9,N
1506082835.7,286047004.4,N
1506082855.6,286047001.3,N
1506082875.4,286047002.5,N
1506082895.2,286047002.8,N
1506082915.0,286047001.5,N
1506082916.0,286047001.5,N
1506082935.8,286047003.1,N
1506082955.6,286047004.1,N
1506082975.4,286047004.2,N
1506082995.3,286047004.0,N
1506083015.1,286047004.2,N
1506083035.8,286047004.2,N
1506083055.7,286047003.4,N
1506083075.5,286047003.5,N
1506083095.3,286047004.9,P
1506083115.2,286047004.0,N
1506083135.0,286047000.9,N
1506083135.9,286047000.9,N
1506083155.7,286047000.5,N
1506083175.6,286046998.4,N
1506083195.4,286047002.8,N
1506083215.2,286047000.1,N
1506083235.1,286047001.6,N
1506083236.0,286047001.6,N
1506083255.8,286047000.2,N
1506083275.6,286047002.7,N
1506083295.5,286047002.3,N
1506083315.3,286047005.2,P
1506083335.1,286047002.2,N
1506083355.9,286046999.7,N
1506083375.7,286047001.4,N
1506083395.5,286047002.2,N
1506083415.4,286046999.8,N
1506083435.2,286047000.1,N
1506083455.0,286046998.6,N
1506083455.9,286046998.6,N
1506083475.8,286046998.6,N
1506083495.6,286046999.0,N
1506083515.4,286047000.4,N
1506083535.3,286047000.2,N
1506083555.1,286046997.1,N
1506083556.0,286046997.1,N
1506083575.8,286046995.0,N
1506083595.6,286046997.5,N
1506083615.5,286046996.1,N
1506083635.3,286046991.8,P
1506083655.1,286046993.5,N
1506083675.9,286046995.3,N
1506083695.7,286046995.3,N
1506083715.5,286046994.2,N
1506083735.4,286046991.2,P
1506083755.2,286046997.7,N
1506083775.0,286046997.3,N
1506083775.9,286046997.3,N
1506083795.8,286046997.8,N
1506083815.6,286046997.5,N
1506083835.4,286046997.5,N
1506083855.3,286046999.0,N
1506083875.1,286046998.8,N
1506083895.8,286047000.8,N
1506083915.7,286046996.6,N
1506083935.5,286046999.1,N
1506083955.3,286046998.3,N
1506083975.2,286046998.1,N
1506083995.9,286046996.5,N
1506084015.7,286047001.2,N
1506084035.5,286047000.8,N
1506084055.4,286047002.1,N
1506084075.2,286047000.0,N
1506084095.0,286046998.5,N
1506084095.9,286046998.5,N
1506084115.8,286047000.7,N
1506084135.6,286047000.6,N
1506084155.4,286047002.2,N
1506084175.3,286047002.6,N
1506084195.1,286046999.8,N
1506084215.8,286047001.1,N
1506084235.7,286047000.8,N
1506084255.5,286046996.8,N
1506084275.3,286046998.2,N
1506084295.2,286047000.2,N
1506084315.9,286047002.8,N
1506084335.7,286047000.9,N
1506084355.6,286046998.5,N
1506084375.4,286047000.8,N
1506084395.2,286047000.7,N
1506084415.0,286046996.7,N
1506084415.9,286046996.7,N
1506084435.8,286046997.3,N
1506084455.6,286046999.2,N
1506084475.4,286047001.2,N
1506084495.3,286047002.7,N
1506084515.1,286046999.9,N
1506084535.8,286046999.0,N
1506084555.7,286046999.8,N
1506084575.5,286047001.1,N
1506084595.3,286046998.6,N
1506084615.2,286046998.5,N
1506084635.9,286046998.1,N
1506084655.7,286047001.0,N
1506084675.6,286046999.1,N
1506084695.4,286046998.6,N
1506084715.2,286046998.9,N
1506084735.0,286046999.0,N
1506084735.9,286046999.0,N
1506084755.8,286046997.8,N
1506084775.6,286046997.0,N
1506084795.4,286047000.6,N
1506084815.3,286047002.0,N
1506084835.1,286047001.8,N
1506084855.8,286047002.2,N
1506084875.7,286046997.0,N
1506084895.5,286046995.0,N
1506084915.3,286046996.1,N
1506084935.2,286046997.6,N
1506084955.9,286046999.2,N
1506084975.7,286046999.2,N
1506084995.6,286047000.8,N
1506085015.4,286047001.0,N
1506085035.2,286047000.3,N
1506085055.0,286047001.0,N
1506085055.9,286047001.0,N
1506085075.8,286047001.0,N
1506085095.6,286046998.8,N
1506085115.4,286046999.5,N
1506085135.3,286046999.4,N
1506085155.1,286046998.6,N
1506085175.8,286046998.4,N
1506085195.7,286047001.0,N
